Volver al catálogo

O3B FM11

ActivoComunicacionesMEO
NORAD 40349·PAYLOAD·🇱🇺 Luxembourg

Lanzado Dec 18, 2014 desde Guiana Space Centre

Loading…

Próximos Pases (próximas 24 horas)

TLE

ActualizadoSource: CelesTrak SupGP

Época: Sep 13, 2026, 16:00 UTC

1 40349C 14083B   26256.66666667  .00000000  00000+0  00000+0 0  2560
2 40349   0.0541 348.4972 0002205 169.0472 100.0023  5.00115658    15

Sigue O3B FM11 en tiempo real con AllMySat

Download on the App Store